TimeEDT,TemperatureF,Dew PointF,Humidity,Sea Level PressureIn,VisibilityMPH,Wind Direction,Wind SpeedMPH,Gust SpeedMPH,PrecipitationIn,Events,Conditions,WindDirDegrees,DateUTC
12:53 AM,73.0,71.1,93,29.98,10.0,ESE,4.6,-,N/A,,Partly Cloudy,120,2012-09-03 04:53:00
1:53 AM,73.0,71.1,93,29.97,10.0,Calm,Calm,-,N/A,,Clear,0,2012-09-03 05:53:00
2:53 AM,73.0,71.1,93,29.97,10.0,Calm,Calm,-,N/A,,Clear,0,2012-09-03 06:53:00
3:53 AM,72.0,70.0,93,29.96,9.0,South,3.5,-,N/A,,Clear,170,2012-09-03 07:53:00
4:36 AM,71.6,69.8,94,30.01,5.0,SSE,4.6,-,N/A,,Overcast,150,2012-09-03 08:36:00
5:07 AM,71.6,69.8,94,30.00,6.0,SSE,5.8,-,N/A,,Overcast,150,2012-09-03 09:07:00
5:46 AM,71.6,71.6,100,30.00,8.0,South,5.8,-,N/A,,Overcast,190,2012-09-03 09:46:00
5:53 AM,72.0,70.0,93,29.96,8.0,South,6.9,-,N/A,,Overcast,190,2012-09-03 09:53:00
6:19 AM,71.6,69.8,94,30.01,10.0,South,4.6,-,N/A,,Mostly Cloudy,190,2012-09-03 10:19:00
6:29 AM,71.6,69.8,94,30.01,8.0,South,4.6,-,N/A,,Scattered Clouds,190,2012-09-03 10:29:00
6:53 AM,72.0,70.0,93,29.97,10.0,SSW,3.5,-,N/A,,Partly Cloudy,200,2012-09-03 10:53:00
7:53 AM,72.0,70.0,93,29.98,7.0,SSW,3.5,-,N/A,,Partly Cloudy,210,2012-09-03 11:53:00
8:53 AM,73.0,71.1,93,29.99,9.0,SSE,4.6,-,N/A,,Overcast,150,2012-09-03 12:53:00
9:48 AM,73.4,71.6,94,30.04,8.0,Calm,Calm,-,N/A,,Mostly Cloudy,0,2012-09-03 13:48:00
9:53 AM,73.0,71.1,93,30.00,8.0,South,3.5,-,N/A,,Overcast,190,2012-09-03 13:53:00
10:23 AM,73.4,71.6,94,30.05,8.0,Calm,Calm,-,0.00,Rain,Light Rain,0,2012-09-03 14:23:00
10:34 AM,73.4,71.6,94,30.05,8.0,Calm,Calm,-,0.00,,Overcast,0,2012-09-03 14:34:00
10:43 AM,73.4,71.6,94,30.05,9.0,Calm,Calm,-,0.00,,Overcast,0,2012-09-03 14:43:00
10:53 AM,75.0,72.0,90,30.00,10.0,Calm,Calm,-,0.00,,Overcast,0,2012-09-03 14:53:00
11:05 AM,75.2,71.6,89,30.05,10.0,Variable,3.5,-,N/A,,Overcast,0,2012-09-03 15:05:00
11:53 AM,75.9,72.0,87,30.01,10.0,Calm,Calm,-,N/A,,Overcast,0,2012-09-03 15:53:00
12:21 PM,77.0,71.6,83,30.05,10.0,SW,8.1,-,N/A,,Scattered Clouds,230,2012-09-03 16:21:00
12:33 PM,78.8,71.6,78,30.05,10.0,WSW,8.1,-,N/A,,Mostly Cloudy,240,2012-09-03 16:33:00
12:43 PM,78.8,69.8,74,30.04,10.0,WSW,5.8,-,N/A,,Scattered Clouds,240,2012-09-03 16:43:00
12:53 PM,79.0,70.0,74,30.00,10.0,WSW,6.9,-,N/A,,Mostly Cloudy,240,2012-09-03 16:53:00
1:53 PM,82.0,70.0,67,29.97,10.0,WSW,9.2,-,0.00,,Partly Cloudy,240,2012-09-03 17:53:00
2:53 PM,81.0,68.0,65,29.95,10.0,West,6.9,-,N/A,,Clear,270,2012-09-03 18:53:00
3:53 PM,82.0,68.0,62,29.93,10.0,West,8.1,-,N/A,,Mostly Cloudy,260,2012-09-03 19:53:00
4:53 PM,81.0,69.1,67,29.93,10.0,SW,4.6,-,N/A,,Mostly Cloudy,220,2012-09-03 20:53:00
5:53 PM,78.1,70.0,76,29.92,10.0,SE,5.8,-,N/A,,Mostly Cloudy,140,2012-09-03 21:53:00
6:12 PM,73.4,69.8,88,29.98,2.0,WSW,12.7,19.6,0.10,Rain-Thunderstorm,Heavy Thunderstorms and Rain,240,2012-09-03 22:12:00
6:15 PM,73.4,69.8,88,29.98,1.0,SW,11.5,19.6,0.21,Rain-Thunderstorm,Heavy Thunderstorms and Rain,230,2012-09-03 22:15:00
6:22 PM,71.6,69.8,94,29.99,0.5,SW,8.1,19.6,0.45,Fog-Rain-Thunderstorm,Heavy Thunderstorms and Rain,220,2012-09-03 22:22:00
6:42 PM,71.6,69.8,94,29.99,1.2,South,6.9,-,0.76,Rain-Thunderstorm,Heavy Thunderstorms and Rain,180,2012-09-03 22:42:00
6:45 PM,71.6,69.8,94,29.99,1.8,SSE,5.8,-,0.78,Rain-Thunderstorm,Heavy Thunderstorms and Rain,160,2012-09-03 22:45:00
6:51 PM,71.6,69.8,94,29.99,2.5,SSE,5.8,-,0.80,Rain-Thunderstorm,Heavy Thunderstorms and Rain,160,2012-09-03 22:51:00
6:53 PM,72.0,70.0,93,29.94,2.5,SE,3.5,-,0.81,Rain-Thunderstorm,Thunderstorms and Rain,140,2012-09-03 22:53:00
7:00 PM,71.6,69.8,94,29.98,4.0,SE,3.5,-,0.01,Rain,Rain,140,2012-09-03 23:00:00
7:53 PM,73.0,70.0,90,29.94,10.0,South,3.5,-,0.05,,Scattered Clouds,170,2012-09-03 23:53:00
8:53 PM,72.0,70.0,93,29.95,10.0,SSE,4.6,-,N/A,,Scattered Clouds,160,2012-09-04 00:53:00
9:53 PM,72.0,70.0,93,29.96,10.0,SE,4.6,-,N/A,,Mostly Cloudy,140,2012-09-04 01:53:00
10:35 PM,71.6,69.8,94,29.99,10.0,SSE,4.6,-,N/A,,Overcast,150,2012-09-04 02:35:00
11:21 PM,71.6,71.6,100,30.00,7.0,SSE,4.6,-,N/A,,Overcast,150,2012-09-04 03:21:00
11:35 PM,71.6,71.6,100,30.00,8.0,SSE,4.6,-,N/A,,Overcast,160,2012-09-04 03:35:00
11:53 PM,72.0,71.1,97,29.96,7.0,SSE,5.8,-,N/A,,Overcast,160,2012-09-04 03:53:00